Hattiesburg, MS

1:59 PM CDT on March 26, 2017 (GMT -0500)
Chain Municipal

Weather History for KHBG - August, 2014

Change the Weather History Date:

Sunday, August 17, 2014

  Actual Average Record
Temperature  
Mean Temperature 85 °F 82 °F  
Max Temperature 94 °F 92 °F 100 °F (2000)
Min Temperature 75 °F 71 °F 57 °F (2004)
Degree Days  
Heating Degree Days 0 0  
Month to date heating degree days 0 0  
Since 1 June heating degree days 0 0  
Since 1 July heating degree days 0 0  
Cooling Degree Days 20 17  
Month to date cooling degree days 286 289  
Year to date cooling degree days 1608 1649  
Since 1 June cooling degree days 1232 1234  
Growing Degree Days 33 (Base 50)    
Moisture  
Dew Point 73 °F    
Average Humidity 73    
Maximum Humidity 94    
Minimum Humidity 52    
Precipitation  
Precipitation T in 0.14 in 2.93 in (1965)
Month to date precipitation 0.78 2.54  
Year to date precipitation 36.46 39.97  
Sea Level Pressure  
Sea Level Pressure 30.03 in    
Wind  
Wind Speed 5 mph (SW)    
Max Wind Speed 20 mph    
Max Gust Speed 27 mph    
Visibility 10 miles    
Events Rain , Thunderstorm    
T = Trace of Precipitation, MM = Missing Value Source: NWS Daily Summary

Daily Weather History Graph

Daily Weather History Graph

Search for Another Location

Airport or City:

Trip Planner

Search our weather history database for the weather conditions in past years. The results will help you decide how hot, cold, wet, or windy it might be!

Date:

Astronomy

Aug. 17, 2014 Rise Set
Actual Time 6:23 AM CDT 7:37 PM CDT
Civil Twilight 5:58 AM CDT 8:03 PM CDT
Nautical Twilight 5:28 AM CDT 8:33 PM CDT
Astronomical Twilight 4:56 AM CDT 9:04 PM CDT
Moon No Moon Rise 1:39 PM CDT (8/17)
Length of Visible Light 14h 04m
Length of Day
13h 13m
Waning Gibbous, 48% of the Moon is Illuminated
Aug 17
Waning Gibbous
Aug 25
New
Sep 2
First Quarter
Sep 8
Full
Sep 15
Last Quarter

Hourly Weather History & Observations

Time (CDT) Temp. Heat Index Dew Point Humidity Pressure Visibility Wind Dir Wind Speed Gust Speed Precip Events Conditions
12:53 AM 78.1 °F - 73.9 °F 87% 30.01 in 10.0 mi SSW 3.5 mph - N/A   Clear
2:53 AM 78.1 °F - 73.9 °F 87% 29.99 in 10.0 mi SW 5.8 mph - N/A   Clear
3:53 AM 77.0 °F - 73.9 °F 90% 30.01 in 10.0 mi SW 4.6 mph - N/A   Clear
4:53 AM 77.0 °F - 73.9 °F 90% 30.01 in 10.0 mi SSW 4.6 mph - N/A   Clear
5:53 AM 75.9 °F - 73.9 °F 94% 30.03 in 10.0 mi SSE 3.5 mph - N/A   Clear
6:53 AM 77.0 °F - 73.9 °F 90% 30.04 in 10.0 mi Calm Calm - N/A   Clear
7:35 AM 78.1 °F - 75.0 °F 90% 30.05 in 10.0 mi Calm Calm - N/A   Partly Cloudy
7:53 AM 80.1 °F 85.1 °F 75.0 °F 85% 30.05 in 10.0 mi Calm Calm - N/A   Partly Cloudy
8:53 AM 84.0 °F 92.6 °F 75.9 °F 76% 30.06 in 10.0 mi WSW 9.2 mph - N/A   Scattered Clouds
9:02 AM 84.0 °F 92.6 °F 75.9 °F 76% 30.07 in 10.0 mi West 8.1 mph - N/A   Mostly Cloudy
9:20 AM 84.9 °F 94.1 °F 75.9 °F 74% 30.07 in 10.0 mi Variable 6.9 mph - N/A   Scattered Clouds
9:53 AM 87.1 °F 97.3 °F 75.9 °F 69% 30.06 in 10.0 mi WSW 6.9 mph - N/A   Partly Cloudy
10:53 AM 89.1 °F 97.0 °F 73.0 °F 59% 30.04 in 10.0 mi WNW 6.9 mph 17.3 mph N/A   Scattered Clouds
11:53 AM 91.0 °F 98.2 °F 72.0 °F 53% 30.02 in 10.0 mi Variable 5.8 mph - N/A   Scattered Clouds
12:53 PM 90.0 °F 97.9 °F 73.0 °F 57% 30.02 in 10.0 mi WSW 6.9 mph - 0.00 in   Mostly Cloudy
1:53 PM 87.1 °F 92.8 °F 71.1 °F 59% 30.01 in 10.0 mi WNW 15.0 mph 23.0 mph 0.00 in Rain Light Rain
2:16 PM 90.0 °F 96.4 °F 71.1 °F 54% 30.03 in 10.0 mi West 9.2 mph - 0.00 in Thunderstorm Partly Cloudy
2:43 PM 89.1 °F 97.0 °F 73.0 °F 59% 30.03 in 10.0 mi SSW 13.8 mph 23.0 mph 0.00 in Thunderstorm Thunderstorm
2:53 PM 86.0 °F 93.0 °F 73.0 °F 65% 30.01 in 10.0 mi South 11.5 mph - 0.00 in Thunderstorm Thunderstorm
3:07 PM 84.0 °F 90.2 °F 73.0 °F 69% 30.03 in 10.0 mi SSW 12.7 mph - N/A Thunderstorm Mostly Cloudy
3:29 PM 82.9 °F 88.8 °F 73.0 °F 72% 30.02 in 10.0 mi South 9.2 mph - N/A   Scattered Clouds
3:53 PM 82.9 °F 88.0 °F 72.0 °F 69% 30.01 in 10.0 mi SSE 8.1 mph - N/A   Clear
4:53 PM 82.9 °F 88.0 °F 72.0 °F 69% 30.03 in 10.0 mi SW 6.9 mph - N/A   Clear
5:26 PM 82.9 °F 88.0 °F 72.0 °F 69% 30.04 in 10.0 mi West 4.6 mph - N/A   Overcast
5:53 PM 84.0 °F 88.4 °F 70.0 °F 63% 30.00 in 10.0 mi SW 5.8 mph - N/A   Mostly Cloudy
6:53 PM 82.0 °F 87.4 °F 73.0 °F 74% 30.01 in 10.0 mi NW 4.6 mph - N/A   Clear
7:53 PM 81.0 °F 85.2 °F 72.0 °F 74% 30.00 in 10.0 mi WSW 6.9 mph - N/A   Clear
8:53 PM 80.1 °F 83.8 °F 72.0 °F 76% 30.00 in 10.0 mi Calm Calm - N/A   Clear
9:53 PM 77.0 °F - 73.0 °F 88% 30.02 in 10.0 mi SE 4.6 mph - N/A   Clear
10:53 PM 77.0 °F - 73.0 °F 88% 30.03 in 10.0 mi South 3.5 mph - N/A   Clear
11:53 PM 77.0 °F - 73.0 °F 88% 30.02 in 10.0 mi South 3.5 mph - N/A   Clear